TimeCDT,TemperatureF,Dew PointF,Humidity,Sea Level PressureIn,VisibilityMPH,Wind Direction,Wind SpeedMPH,Gust SpeedMPH,PrecipitationIn,Events,Conditions,WindDirDegrees,DateUTC
12:14 AM,35.6,24.8,65,30.29,10.0,NW,11.5,20.7,N/A,,Overcast,320,2012-10-26 05:14:00
12:34 AM,35.6,26.6,70,30.29,10.0,NW,10.4,-,N/A,,Overcast,320,2012-10-26 05:34:00
12:54 AM,35.6,26.6,70,30.29,10.0,NW,12.7,-,N/A,,Overcast,320,2012-10-26 05:54:00
1:14 AM,33.8,26.6,75,30.29,10.0,NW,13.8,17.3,N/A,,Overcast,320,2012-10-26 06:14:00
1:35 AM,33.8,26.6,75,30.29,10.0,NW,11.5,17.3,N/A,,Overcast,320,2012-10-26 06:35:00
1:54 AM,33.8,24.8,70,30.29,10.0,NNW,12.7,18.4,N/A,,Overcast,330,2012-10-26 06:54:00
2:35 AM,33.8,26.6,75,30.30,10.0,NW,8.1,-,N/A,,Overcast,320,2012-10-26 07:35:00
2:54 AM,33.8,26.6,75,30.31,10.0,NW,8.1,-,N/A,,Overcast,310,2012-10-26 07:54:00
3:14 AM,33.8,26.6,75,30.31,10.0,NW,9.2,12.7,N/A,,Overcast,310,2012-10-26 08:14:00
3:35 AM,33.8,26.6,75,30.32,10.0,NW,9.2,-,N/A,,Overcast,310,2012-10-26 08:35:00
3:54 AM,33.8,26.6,75,30.32,10.0,NW,8.1,-,N/A,,Overcast,320,2012-10-26 08:54:00
4:14 AM,33.8,24.8,70,30.33,10.0,NW,9.2,-,N/A,,Overcast,310,2012-10-26 09:14:00
4:35 AM,33.8,24.8,70,30.33,10.0,NW,12.7,17.3,N/A,,Overcast,320,2012-10-26 09:35:00
4:54 AM,33.8,24.8,70,30.34,10.0,WNW,11.5,18.4,N/A,,Overcast,300,2012-10-26 09:54:00
5:14 AM,33.8,24.8,70,30.35,10.0,NW,12.7,17.3,N/A,,Overcast,310,2012-10-26 10:14:00
5:34 AM,33.8,24.8,70,30.36,10.0,NW,10.4,16.1,N/A,,Overcast,310,2012-10-26 10:34:00
5:54 AM,33.8,23.0,65,30.37,10.0,NW,13.8,21.9,N/A,,Overcast,310,2012-10-26 10:54:00
6:15 AM,33.8,23.0,65,30.37,10.0,WNW,10.4,-,N/A,,Overcast,300,2012-10-26 11:15:00
6:34 AM,33.8,24.8,70,30.38,10.0,NW,11.5,-,N/A,,Overcast,310,2012-10-26 11:34:00
6:54 AM,33.8,24.8,70,30.39,10.0,WNW,12.7,17.3,N/A,,Overcast,300,2012-10-26 11:54:00
7:15 AM,33.8,24.8,70,30.39,10.0,WNW,12.7,18.4,N/A,,Overcast,300,2012-10-26 12:15:00
7:34 AM,33.8,23.0,65,30.40,10.0,NW,13.8,-,N/A,,Overcast,310,2012-10-26 12:34:00
7:54 AM,33.8,23.0,65,30.40,10.0,NW,12.7,18.4,N/A,,Overcast,310,2012-10-26 12:54:00
8:54 AM,33.8,23.0,65,30.42,10.0,NW,12.7,23.0,N/A,,Overcast,310,2012-10-26 13:54:00
9:14 AM,33.8,23.0,65,30.42,10.0,NW,11.5,-,N/A,,Overcast,310,2012-10-26 14:14:00
9:34 AM,33.8,24.8,70,30.42,10.0,NW,8.1,-,N/A,,Overcast,310,2012-10-26 14:34:00
9:55 AM,33.8,23.0,65,30.43,10.0,NW,10.4,17.3,N/A,,Overcast,320,2012-10-26 14:55:00
10:14 AM,35.6,23.0,60,30.43,10.0,NW,10.4,-,N/A,,Overcast,320,2012-10-26 15:14:00
10:34 AM,35.6,23.0,60,30.44,10.0,NW,10.4,17.3,N/A,,Overcast,320,2012-10-26 15:34:00
10:55 AM,35.6,23.0,60,30.44,10.0,NW,9.2,16.1,N/A,,Overcast,320,2012-10-26 15:55:00
11:14 AM,35.6,24.8,65,30.44,10.0,WNW,8.1,-,N/A,,Overcast,300,2012-10-26 16:14:00
11:34 AM,35.6,23.0,60,30.43,10.0,NW,15.0,-,N/A,,Overcast,320,2012-10-26 16:34:00
11:55 AM,35.6,23.0,60,30.43,10.0,WNW,12.7,-,N/A,,Overcast,300,2012-10-26 16:55:00
12:14 PM,35.6,23.0,60,30.43,10.0,WNW,11.5,17.3,N/A,,Overcast,300,2012-10-26 17:14:00
12:34 PM,35.6,23.0,60,30.43,10.0,NW,13.8,17.3,N/A,,Overcast,310,2012-10-26 17:34:00
12:55 PM,35.6,23.0,60,30.42,10.0,WNW,12.7,19.6,N/A,,Overcast,300,2012-10-26 17:55:00
1:14 PM,35.6,23.0,60,30.42,10.0,NW,12.7,19.6,N/A,,Overcast,310,2012-10-26 18:14:00
1:34 PM,35.6,23.0,60,30.41,10.0,NW,13.8,18.4,N/A,,Overcast,310,2012-10-26 18:34:00
1:55 PM,35.6,24.8,65,30.41,10.0,WNW,12.7,-,N/A,,Overcast,300,2012-10-26 18:55:00
2:14 PM,37.4,24.8,60,30.41,10.0,WNW,10.4,18.4,N/A,,Overcast,300,2012-10-26 19:14:00
2:34 PM,35.6,26.6,70,30.40,10.0,West,13.8,19.6,N/A,,Overcast,280,2012-10-26 19:34:00
2:54 PM,35.6,26.6,70,30.40,10.0,West,15.0,-,N/A,,Overcast,280,2012-10-26 19:54:00
3:14 PM,35.6,26.6,70,30.40,10.0,WNW,12.7,19.6,N/A,,Overcast,300,2012-10-26 20:14:00
3:34 PM,35.6,23.0,60,30.39,10.0,WNW,12.7,-,N/A,,Overcast,290,2012-10-26 20:34:00
3:55 PM,35.6,23.0,60,30.39,10.0,WNW,15.0,-,N/A,,Overcast,290,2012-10-26 20:55:00
4:14 PM,35.6,23.0,60,30.39,10.0,WNW,13.8,-,N/A,,Overcast,300,2012-10-26 21:14:00
4:34 PM,35.6,23.0,60,30.39,10.0,WNW,11.5,-,N/A,,Overcast,300,2012-10-26 21:34:00
4:55 PM,35.6,23.0,60,30.39,10.0,WNW,11.5,-,N/A,,Overcast,290,2012-10-26 21:55:00
5:14 PM,35.6,23.0,60,30.38,10.0,WNW,9.2,-,N/A,,Overcast,300,2012-10-26 22:14:00
5:34 PM,35.6,24.8,65,30.38,10.0,WNW,9.2,-,N/A,,Overcast,290,2012-10-26 22:34:00
5:55 PM,35.6,24.8,65,30.38,10.0,West,9.2,-,N/A,,Overcast,280,2012-10-26 22:55:00
6:14 PM,35.6,24.8,65,30.38,10.0,West,8.1,-,N/A,,Overcast,280,2012-10-26 23:14:00
6:34 PM,33.8,26.6,75,30.38,10.0,West,8.1,-,N/A,,Overcast,280,2012-10-26 23:34:00
6:55 PM,33.8,26.6,75,30.38,10.0,WNW,8.1,-,N/A,,Overcast,290,2012-10-26 23:55:00
7:14 PM,33.8,26.6,75,30.38,10.0,NW,5.8,-,N/A,,Overcast,310,2012-10-27 00:14:00
7:34 PM,33.8,26.6,75,30.39,10.0,WNW,4.6,-,N/A,,Overcast,300,2012-10-27 00:34:00
7:55 PM,33.8,26.6,75,30.39,10.0,WNW,5.8,-,N/A,,Overcast,290,2012-10-27 00:55:00
8:14 PM,33.8,26.6,75,30.38,10.0,WNW,3.5,-,N/A,,Overcast,300,2012-10-27 01:14:00
8:34 PM,33.8,26.6,75,30.38,10.0,West,5.8,-,N/A,,Overcast,270,2012-10-27 01:34:00
8:55 PM,33.8,26.6,75,30.38,10.0,West,4.6,-,N/A,,Overcast,280,2012-10-27 01:55:00
9:14 PM,33.8,26.6,75,30.38,10.0,West,4.6,-,N/A,,Overcast,270,2012-10-27 02:14:00
9:34 PM,33.8,26.6,75,30.38,10.0,West,5.8,-,N/A,,Overcast,270,2012-10-27 02:34:00
9:55 PM,32.0,24.8,75,30.38,10.0,West,5.8,-,N/A,,Overcast,280,2012-10-27 02:55:00
10:14 PM,32.0,24.8,75,30.38,10.0,West,5.8,-,N/A,,Scattered Clouds,280,2012-10-27 03:14:00
10:34 PM,30.2,23.0,75,30.38,10.0,West,5.8,-,N/A,,Clear,280,2012-10-27 03:34:00
10:55 PM,28.4,23.0,80,30.38,10.0,West,6.9,-,N/A,,Clear,260,2012-10-27 03:55:00
11:14 PM,28.4,23.0,80,30.37,10.0,West,5.8,-,N/A,,Clear,260,2012-10-27 04:14:00
11:34 PM,26.6,23.0,86,30.38,10.0,WSW,8.1,-,N/A,,Clear,250,2012-10-27 04:34:00
11:55 PM,26.6,23.0,86,30.37,10.0,WSW,5.8,-,N/A,,Clear,250,2012-10-27 04:55:00